BAW705 EGAC-EGLL

Flight info

Callsign BAW705
Flight time 0h 55m
Altitude 33000
Route DUFFY L10 RINGA Q39 BABGU DCT ETIGA DCT INKOB Q39 NOMSU UQ4 WAL UY53 NUGRA
Aircraft A321/M-SDE3FGHIRWY/LB1

Departure

Time 2026-04-30 12:28
Airport George Best Belfast City Airport (EGAC)

Arrival

Time 2026-04-30 13:24
Airport London Heathrow Airport (EGLL)
Time Latitude Longitude Altitude Speed Heading
2026-04-30 12:09 54.61546 -5.87092 22 ft 0 kts 161°
2026-04-30 12:20 54.61553 -5.87096 21 ft 2 kts 161°
2026-04-30 12:20 54.61571 -5.87107 23 ft 3 kts 161°
2026-04-30 12:21 54.61590 -5.87116 24 ft 3 kts 175°
2026-04-30 12:21 54.61610 -5.87116 25 ft 3 kts 193°
2026-04-30 12:21 54.61628 -5.87105 24 ft 3 kts 210°
2026-04-30 12:21 54.61638 -5.87095 24 ft 1 kts 214°
2026-04-30 12:22 54.61640 -5.87092 24 ft 0 kts 214°
2026-04-30 12:24 54.61640 -5.87093 21 ft 0 kts 214°
2026-04-30 12:24 54.61629 -5.87106 21 ft 4 kts 214°
2026-04-30 12:24 54.61601 -5.87140 22 ft 8 kts 214°
2026-04-30 12:25 54.61537 -5.87216 21 ft 12 kts 215°
2026-04-30 12:25 54.61462 -5.87307 21 ft 14 kts 215°
2026-04-30 12:25 54.61390 -5.87432 21 ft 16 kts 230°
2026-04-30 12:25 54.61296 -5.87547 19 ft 18 kts 212°
2026-04-30 12:26 54.61183 -5.87678 16 ft 20 kts 220°
2026-04-30 12:26 54.61116 -5.87766 18 ft 11 kts 216°
2026-04-30 12:26 54.61080 -5.87833 19 ft 5 kts 279°
2026-04-30 12:26 54.61090 -5.87913 19 ft 9 kts 285°
2026-04-30 12:27 54.61127 -5.88006 18 ft 10 kts 313°
2026-04-30 12:27 54.61187 -5.87996 19 ft 10 kts 26°
2026-04-30 12:27 54.61222 -5.87956 18 ft 0 kts 35°
2026-04-30 12:27 54.61227 -5.87950 18 ft 3 kts 35°
2026-04-30 12:28 54.61365 -5.87783 15 ft 66 kts 35°
2026-04-30 12:28 54.61996 -5.87030 50 ft 146 kts 42°
2026-04-30 12:28 54.62826 -5.86006 930 ft 149 kts 43°
2026-04-30 12:28 54.63705 -5.84905 1684 ft 169 kts 44°
2026-04-30 12:29 54.64584 -5.83460 2187 ft 179 kts 66°
2026-04-30 12:29 54.64790 -5.81314 2384 ft 191 kts 106°
2026-04-30 12:29 54.64115 -5.79251 2640 ft 211 kts 138°
2026-04-30 12:29 54.62800 -5.77882 3112 ft 230 kts 153°
2026-04-30 12:30 54.61349 -5.76591 3822 ft 238 kts 153°
2026-04-30 12:30 54.59862 -5.75240 4666 ft 243 kts 152°
2026-04-30 12:30 54.58369 -5.73874 5480 ft 247 kts 152°
2026-04-30 12:30 54.56824 -5.72461 6339 ft 250 kts 152°
2026-04-30 12:31 54.55801 -5.71527 6860 ft 252 kts 152°
2026-04-30 12:31 54.53714 -5.69625 7912 ft 255 kts 153°
2026-04-30 12:31 54.52135 -5.68188 8718 ft 258 kts 153°
2026-04-30 12:31 54.50566 -5.66763 9525 ft 259 kts 153°
2026-04-30 12:32 54.48960 -5.65310 10310 ft 261 kts 153°
2026-04-30 12:32 54.47298 -5.63816 10649 ft 280 kts 153°
2026-04-30 12:32 54.45501 -5.62202 10811 ft 303 kts 153°
2026-04-30 12:32 54.43568 -5.60467 11011 ft 322 kts 153°
2026-04-30 12:33 54.41569 -5.58623 11541 ft 328 kts 149°
2026-04-30 12:33 54.39746 -5.56211 12178 ft 333 kts 138°
2026-04-30 12:33 54.38239 -5.53148 12844 ft 339 kts 127°
2026-04-30 12:33 54.36906 -5.49813 13526 ft 341 kts 127°
2026-04-30 12:34 54.35551 -5.46454 14174 ft 343 kts 127°
2026-04-30 12:34 54.34194 -5.43116 14747 ft 346 kts 128°
2026-04-30 12:34 54.32792 -5.39681 15323 ft 349 kts 128°
2026-04-30 12:34 54.31413 -5.36307 15892 ft 352 kts 128°
2026-04-30 12:35 54.30002 -5.32862 16472 ft 355 kts 128°
2026-04-30 12:35 54.28583 -5.29394 17052 ft 357 kts 128°
2026-04-30 12:35 54.27128 -5.25918 17606 ft 360 kts 130°
2026-04-30 12:35 54.25586 -5.22530 18141 ft 362 kts 131°
2026-04-30 12:36 54.24506 -5.20275 18496 ft 363 kts 133°
2026-04-30 12:36 54.22343 -5.15882 19103 ft 367 kts 133°
2026-04-30 12:36 54.21248 -5.13674 19422 ft 368 kts 133°
2026-04-30 12:36 54.19032 -5.09178 20041 ft 371 kts 133°
2026-04-30 12:37 54.17373 -5.05783 20512 ft 373 kts 133°
2026-04-30 12:37 54.15708 -5.02360 20981 ft 376 kts 133°
2026-04-30 12:37 54.14040 -4.98917 21435 ft 378 kts 132°
2026-04-30 12:37 54.12927 -4.96613 21736 ft 380 kts 132°
2026-04-30 12:38 54.11244 -4.93125 22198 ft 382 kts 132°
2026-04-30 12:38 54.09548 -4.89615 22647 ft 385 kts 132°
2026-04-30 12:38 54.07836 -4.86082 23094 ft 387 kts 132°
2026-04-30 12:38 54.06113 -4.82544 23538 ft 389 kts 133°
2026-04-30 12:39 54.04378 -4.78998 23936 ft 392 kts 132°
2026-04-30 12:39 54.02114 -4.74161 24402 ft 396 kts 130°
2026-04-30 12:39 54.00988 -4.71641 24647 ft 398 kts 130°
2026-04-30 12:39 53.99329 -4.67855 24992 ft 401 kts 129°
2026-04-30 12:40 53.97663 -4.64028 25348 ft 403 kts 129°
2026-04-30 12:40 53.95984 -4.60196 25675 ft 406 kts 130°
2026-04-30 12:40 53.94288 -4.56355 26041 ft 408 kts 130°
2026-04-30 12:40 53.92596 -4.52555 26386 ft 410 kts 130°
2026-04-30 12:41 53.90841 -4.48644 26739 ft 412 kts 130°
2026-04-30 12:41 53.89116 -4.44827 27079 ft 414 kts 130°
2026-04-30 12:41 53.87355 -4.40944 27418 ft 416 kts 130°
2026-04-30 12:41 53.85617 -4.36987 27758 ft 419 kts 129°
2026-04-30 12:42 53.83933 -4.32934 28079 ft 421 kts 128°
2026-04-30 12:42 53.82280 -4.28821 28402 ft 423 kts 127°
2026-04-30 12:42 53.80631 -4.24681 28700 ft 425 kts 127°
2026-04-30 12:42 53.78972 -4.20533 28977 ft 426 kts 127°
2026-04-30 12:43 53.77294 -4.16381 29322 ft 426 kts 128°
2026-04-30 12:43 53.75617 -4.12275 29737 ft 424 kts 128°
2026-04-30 12:43 53.73934 -4.08192 30160 ft 423 kts 128°
2026-04-30 12:43 53.72248 -4.04123 30522 ft 421 kts 128°
2026-04-30 12:44 53.70589 -4.00130 30857 ft 420 kts 128°
2026-04-30 12:44 53.68911 -3.96099 31183 ft 419 kts 128°
2026-04-30 12:44 53.67236 -3.92076 31507 ft 419 kts 128°
2026-04-30 12:44 53.65561 -3.88052 31825 ft 418 kts 128°
2026-04-30 12:45 53.63892 -3.84042 32154 ft 417 kts 128°
2026-04-30 12:45 53.62223 -3.80038 32473 ft 416 kts 128°
2026-04-30 12:45 53.60564 -3.76060 32814 ft 416 kts 128°
2026-04-30 12:45 53.58904 -3.72081 33108 ft 415 kts 128°
2026-04-30 12:46 53.55579 -3.64143 33197 ft 414 kts 128°
2026-04-30 12:46 53.52251 -3.56254 33199 ft 413 kts 128°
2026-04-30 12:47 53.48951 -3.48444 33205 ft 412 kts 128°
2026-04-30 12:47 53.45996 -3.40198 33209 ft 416 kts 117°
2026-04-30 12:48 53.43747 -3.31248 33210 ft 416 kts 117°
2026-04-30 12:48 53.41478 -3.22336 33214 ft 415 kts 117°
2026-04-30 12:49 53.39097 -3.13531 33212 ft 412 kts 123°
2026-04-30 12:49 53.35793 -3.05774 33217 ft 409 kts 129°
2026-04-30 12:50 53.32388 -2.98147 33218 ft 409 kts 129°
2026-04-30 12:50 53.28983 -2.90527 33219 ft 409 kts 129°
2026-04-30 12:51 53.25573 -2.82918 33226 ft 409 kts 129°
2026-04-30 12:51 53.22160 -2.75312 33219 ft 410 kts 129°
2026-04-30 12:52 53.18757 -2.67753 33228 ft 410 kts 129°
2026-04-30 12:52 53.15317 -2.60146 33229 ft 411 kts 129°
2026-04-30 12:53 53.11914 -2.52497 33219 ft 412 kts 128°
2026-04-30 12:53 53.08694 -2.44584 33233 ft 413 kts 126°
2026-04-30 12:54 53.05509 -2.36616 33228 ft 413 kts 126°
2026-04-30 12:54 53.01801 -2.29413 33233 ft 409 kts 142°
2026-04-30 12:55 52.97078 -2.24242 33231 ft 409 kts 148°
2026-04-30 12:55 52.92270 -2.19198 33228 ft 409 kts 148°
2026-04-30 12:56 52.87450 -2.14126 33234 ft 410 kts 148°
2026-04-30 12:56 52.82625 -2.09078 33234 ft 410 kts 148°
2026-04-30 12:57 52.77805 -2.04066 33231 ft 411 kts 148°
2026-04-30 12:57 52.72957 -1.99043 33231 ft 411 kts 148°
2026-04-30 12:58 52.68113 -1.94038 33225 ft 411 kts 148°
2026-04-30 12:58 52.63264 -1.89032 33221 ft 411 kts 148°
2026-04-30 12:59 52.58410 -1.84037 33220 ft 411 kts 148°
2026-04-30 12:59 52.53579 -1.79071 33219 ft 411 kts 148°
2026-04-30 13:00 52.48722 -1.74101 33218 ft 411 kts 148°
2026-04-30 13:00 52.43862 -1.69134 33221 ft 411 kts 148°
2026-04-30 13:01 52.38994 -1.64180 33221 ft 412 kts 148°
2026-04-30 13:01 52.34114 -1.59218 33218 ft 412 kts 148°
2026-04-30 13:02 52.29235 -1.54272 33287 ft 412 kts 148°
2026-04-30 13:02 52.26801 -1.51815 32785 ft 410 kts 148°
2026-04-30 13:02 52.24374 -1.49369 31930 ft 411 kts 148°
2026-04-30 13:03 52.21984 -1.46919 31176 ft 411 kts 145°
2026-04-30 13:03 52.19759 -1.43995 30393 ft 411 kts 140°
2026-04-30 13:03 52.17593 -1.40961 29401 ft 412 kts 140°
2026-04-30 13:03 52.15413 -1.37913 28587 ft 410 kts 140°
2026-04-30 13:04 52.13250 -1.34890 27939 ft 405 kts 140°
2026-04-30 13:04 52.11124 -1.31924 27285 ft 401 kts 140°
2026-04-30 13:04 52.09014 -1.28985 26593 ft 397 kts 140°
2026-04-30 13:04 52.06916 -1.26072 25912 ft 394 kts 140°
2026-04-30 13:05 52.04838 -1.23190 25259 ft 391 kts 140°
2026-04-30 13:05 52.02778 -1.20335 24604 ft 388 kts 140°
2026-04-30 13:05 52.00737 -1.17512 23941 ft 385 kts 140°
2026-04-30 13:06 51.96683 -1.11925 22506 ft 379 kts 140°
2026-04-30 13:06 51.94678 -1.09163 21807 ft 376 kts 140°
2026-04-30 13:06 51.92723 -1.06463 21156 ft 373 kts 140°
2026-04-30 13:06 51.90753 -1.03747 20507 ft 371 kts 140°
2026-04-30 13:07 51.88785 -1.01044 19864 ft 369 kts 140°
2026-04-30 13:07 51.86836 -0.98372 19244 ft 366 kts 141°
2026-04-30 13:07 51.85088 -0.95398 18626 ft 367 kts 124°
2026-04-30 13:07 51.83874 -0.91777 17941 ft 366 kts 119°
2026-04-30 13:08 51.82734 -0.88097 17283 ft 364 kts 118°
2026-04-30 13:08 51.81630 -0.84444 16658 ft 360 kts 118°
2026-04-30 13:08 51.80537 -0.80808 16031 ft 357 kts 117°
2026-04-30 13:08 51.79456 -0.77221 15435 ft 353 kts 117°
2026-04-30 13:09 51.78377 -0.73674 14845 ft 350 kts 118°
2026-04-30 13:09 51.77059 -0.70419 14271 ft 344 kts 133°
2026-04-30 13:09 51.75188 -0.68070 13676 ft 341 kts 151°
2026-04-30 13:09 51.72946 -0.66865 13279 ft 342 kts 169°
2026-04-30 13:10 51.70552 -0.66933 13197 ft 349 kts 187°
2026-04-30 13:10 51.68175 -0.67763 13215 ft 345 kts 189°
2026-04-30 13:10 51.65932 -0.68573 13212 ft 324 kts 189°
2026-04-30 13:10 51.63799 -0.69348 13213 ft 305 kts 189°
2026-04-30 13:11 51.61778 -0.70083 13074 ft 293 kts 189°
2026-04-30 13:11 51.59817 -0.70792 12489 ft 285 kts 189°
2026-04-30 13:11 51.57898 -0.71480 11689 ft 282 kts 189°
2026-04-30 13:11 51.55987 -0.72166 10941 ft 279 kts 188°
2026-04-30 13:12 51.54104 -0.72841 10212 ft 275 kts 188°
2026-04-30 13:12 51.52247 -0.73504 9447 ft 271 kts 188°
2026-04-30 13:12 51.50414 -0.74090 8669 ft 265 kts 181°
2026-04-30 13:13 51.46794 -0.74860 7343 ft 265 kts 190°
2026-04-30 13:13 51.45023 -0.75576 7010 ft 261 kts 191°
2026-04-30 13:13 51.41650 -0.77604 6298 ft 267 kts 217°
2026-04-30 13:14 51.40574 -0.80052 5951 ft 275 kts 245°
2026-04-30 13:14 51.40323 -0.83117 5612 ft 285 kts 273°
2026-04-30 13:14 51.42289 -0.88477 5153 ft 282 kts 325°
2026-04-30 13:15 51.44009 -0.89804 5029 ft 271 kts 347°
2026-04-30 13:15 51.47464 -0.91804 4648 ft 262 kts 341°
2026-04-30 13:15 51.49154 -0.92870 4394 ft 260 kts 341°
2026-04-30 13:16 51.50833 -0.93921 4147 ft 257 kts 341°
2026-04-30 13:16 51.52530 -0.94610 3883 ft 247 kts
2026-04-30 13:16 51.54120 -0.93938 3686 ft 230 kts 39°
2026-04-30 13:17 51.55373 -0.89822 3194 ft 208 kts 96°
2026-04-30 13:17 51.55211 -0.87531 2953 ft 203 kts 103°
2026-04-30 13:17 51.53955 -0.84396 2958 ft 208 kts 136°
2026-04-30 13:18 51.52489 -0.82246 2951 ft 218 kts 136°
2026-04-30 13:18 51.50219 -0.78948 2969 ft 220 kts 136°
2026-04-30 13:18 51.49080 -0.77295 2972 ft 217 kts 136°
2026-04-30 13:19 51.48154 -0.75547 2966 ft 198 kts 120°
2026-04-30 13:19 51.47687 -0.73514 2988 ft 193 kts 102°
2026-04-30 13:19 51.47623 -0.71379 2857 ft 191 kts 92°
2026-04-30 13:19 51.47641 -0.69260 2635 ft 186 kts 92°
2026-04-30 13:20 51.47656 -0.67256 2406 ft 173 kts 92°
2026-04-30 13:20 51.47667 -0.65431 2200 ft 161 kts 91°
2026-04-30 13:20 51.47677 -0.63724 1988 ft 145 kts 91°
2026-04-30 13:20 51.47685 -0.62156 1802 ft 138 kts 91°
2026-04-30 13:21 51.47693 -0.60632 1616 ft 135 kts 92°
2026-04-30 13:21 51.47700 -0.59116 1437 ft 136 kts 92°
2026-04-30 13:21 51.47707 -0.57594 1251 ft 136 kts 91°
2026-04-30 13:22 51.47722 -0.54600 886 ft 133 kts 89°
2026-04-30 13:22 51.47729 -0.53136 700 ft 132 kts 89°
2026-04-30 13:22 51.47740 -0.50177 349 ft 130 kts 90°
2026-04-30 13:23 51.47744 -0.48726 190 ft 132 kts 88°
2026-04-30 13:23 51.47759 -0.46097 90 ft 89 kts 90°
2026-04-30 13:24 51.47727 -0.45198 91 ft 16 kts 143°
2026-04-30 13:24 51.47602 -0.45222 88 ft 10 kts 244°
2026-04-30 13:25 51.47596 -0.45528 85 ft 17 kts 270°
2026-04-30 13:25 51.47595 -0.45943 89 ft 20 kts 268°
2026-04-30 13:26 51.47592 -0.46565 90 ft 22 kts 269°
2026-04-30 13:26 51.47583 -0.47076 90 ft 17 kts 271°
2026-04-30 13:27 51.47580 -0.47508 89 ft 21 kts 267°
2026-04-30 13:28 51.47579 -0.48191 92 ft 16 kts 270°
2026-04-30 13:28 51.47500 -0.48477 89 ft 14 kts 180°
2026-04-30 13:28 51.47392 -0.48476 86 ft 17 kts 179°
2026-04-30 13:29 51.47316 -0.48542 85 ft 7 kts 266°
2026-04-30 13:29 51.47315 -0.48589 86 ft 0 kts 269°